Erie, PA

3:16 PM EDT on October 18, 2019 (GMT -0400)
Erie International

Weather History for KERI - August, 2019

Change the Weather History Date:

Sunday, August 18, 2019

  Actual Average Record
Temperature  
Mean Temperature 79 °F 71 °F  
Max Temperature 89 °F 79 °F 92 °F (1940)
Min Temperature 69 °F 63 °F 46 °F (1954)
Degree Days  
Heating Degree Days 0 0  
Month to date heating degree days 0 0  
Since 1 June heating degree days 38 68  
Since 1 July heating degree days 0 7  
Cooling Degree Days 14 6  
Month to date cooling degree days 153 116  
Year to date cooling degree days 618 491  
Since 1 June cooling degree days 585 452  
Growing Degree Days 29 (Base 50)    
Moisture  
Dew Point 66 °F    
Average Humidity 67    
Maximum Humidity 90    
Minimum Humidity 44    
Precipitation  
Precipitation 0.84 in 0.11 in 2.04 in (1950)
Month to date precipitation 2.22 2.05  
Year to date precipitation 24.72 24.41  
Snow  
Snow 0.00 in 0.00 in - ()
Month to date snowfall 0.0 0.0  
Since 1 June snowfall 0.0 0.0  
Since 1 July snowfall 0.0 0.0  
Snow Depth 0.00 in    
Sea Level Pressure  
Sea Level Pressure 29.94 in    
Wind  
Wind Speed 10 mph (South)    
Max Wind Speed 30 mph    
Max Gust Speed 38 mph    
Visibility 8 miles    
Events Fog , Rain , Thunderstorm    
T = Trace of Precipitation, MM = Missing Value Source: NWS Daily Summary

Daily Weather History Graph

Daily Weather History Graph

Search for Another Location

Airport or City:

Astronomy

Aug. 18, 2019 Rise Set
Actual Time 6:31 AM EDT 8:17 PM EDT
Civil Twilight 6:01 AM EDT 8:46 PM EDT
Nautical Twilight 5:25 AM EDT 9:23 PM EDT
Astronomical Twilight 4:46 AM EDT 10:01 PM EDT
Moon 10:08 PM EDT 9:17 AM EDT
Length of Visible Light 14h 45m
Length of Day
13h 45m
Waning Gibbous, 91% of the Moon is Illuminated
Aug 18
Waning Gibbous
Aug 23
Last Quarter
Aug 30
New
Sep 5
First Quarter
Sep 14
Full

Hourly Weather History & Observations

Time (EDT) Temp. Heat Index Dew Point Humidity Pressure Visibility Wind Dir Wind Speed Gust Speed Precip Events Conditions
12:51 AM 73.0 °F - 64.9 °F 76% 29.96 in 10.0 mi South 3.5 mph - N/A   Clear
1:51 AM 73.0 °F - 66.0 °F 79% 29.95 in 10.0 mi South 6.9 mph - N/A   Clear
2:51 AM 72.0 °F - 66.0 °F 81% 29.94 in 10.0 mi South 8.1 mph - N/A   Clear
3:51 AM 73.0 °F - 66.9 °F 81% 29.94 in 10.0 mi South 5.8 mph - N/A   Overcast
4:51 AM 72.0 °F - 66.9 °F 84% 29.94 in 8.0 mi West 5.8 mph - 0.04 in Rain Light Rain
5:19 AM 72.0 °F - 68.0 °F 87% 29.99 in 3.0 mi West 4.6 mph - 0.17 in Rain Rain
5:30 AM 72.0 °F - 68.0 °F 87% 29.99 in 2.5 mi NW 4.6 mph - 0.21 in Rain Rain
5:39 AM 72.0 °F - 68.0 °F 87% 29.97 in 4.0 mi East 3.5 mph - 0.24 in Rain Rain
5:51 AM 71.1 °F - 68.0 °F 90% 29.94 in 7.0 mi SE 6.9 mph - 0.24 in Rain Light Rain
6:51 AM 70.0 °F - 66.0 °F 87% 29.94 in 10.0 mi SSE 4.6 mph - 0.00 in   Partly Cloudy
7:51 AM 72.0 °F - 66.9 °F 84% 29.96 in 10.0 mi South 11.5 mph - N/A Thunderstorm Mostly Cloudy
7:58 AM 71.1 °F - 66.0 °F 84% 29.98 in 2.0 mi SW 28.8 mph 38.0 mph 0.00 in Rain , Thunderstorm Light Thunderstorms and Rain
8:01 AM 70.0 °F - 64.9 °F 84% 29.99 in 0.8 mi SW 19.6 mph 38.0 mph 0.06 in Rain , Thunderstorm Heavy Thunderstorms and Rain
8:05 AM 69.1 °F - 64.9 °F 87% 29.97 in 0.5 mi South 13.8 mph 38.0 mph 0.20 in Fog , Rain , Thunderstorm Heavy Thunderstorms and Rain
8:12 AM 69.1 °F - 64.9 °F 87% 29.97 in 0.5 mi South 11.5 mph - 0.50 in Fog , Rain , Thunderstorm Heavy Thunderstorms and Rain
8:15 AM 69.1 °F - 64.9 °F 87% 29.96 in 1.0 mi South 10.4 mph - 0.50 in Rain , Thunderstorm Thunderstorms and Rain
8:19 AM 69.1 °F - 64.9 °F 87% 29.97 in 3.0 mi South 16.1 mph 21.9 mph 0.51 in Rain , Thunderstorm Thunderstorms and Rain
8:26 AM 69.1 °F - 64.9 °F 87% 29.94 in 8.0 mi SE 12.7 mph - 0.51 in Rain , Thunderstorm Light Thunderstorms and Rain
8:34 AM 69.1 °F - 64.9 °F 87% 29.96 in 10.0 mi South 12.7 mph - 0.52 in Rain , Thunderstorm Light Rain
8:51 AM 70.0 °F - 64.9 °F 84% 29.94 in 7.0 mi South 8.1 mph - 0.53 in Rain , Thunderstorm Light Rain
8:58 AM 69.1 °F - 64.9 °F 87% 29.94 in 7.0 mi SSE 10.4 mph - 0.01 in Rain Light Rain
9:51 AM 71.1 °F - 64.9 °F 81% 29.95 in 10.0 mi South 9.2 mph - 0.03 in   Partly Cloudy
10:51 AM 78.1 °F - 68.0 °F 71% 29.95 in 10.0 mi South 11.5 mph - N/A   Clear
11:51 AM 80.1 °F 82.7 °F 68.0 °F 67% 29.95 in 10.0 mi SSW 6.9 mph - N/A   Scattered Clouds
12:51 PM 84.0 °F 87.0 °F 68.0 °F 58% 29.92 in 10.0 mi South 13.8 mph - N/A   Clear
1:51 PM 86.0 °F 88.8 °F 66.9 °F 53% 29.92 in 10.0 mi WSW 10.4 mph 20.7 mph N/A   Clear
2:51 PM 88.0 °F 90.7 °F 66.9 °F 49% 29.92 in 10.0 mi SW 12.7 mph 21.9 mph N/A   Clear
3:51 PM 89.1 °F 91.0 °F 64.9 °F 45% 29.91 in 10.0 mi WSW 10.4 mph 23.0 mph N/A   Clear
4:51 PM 84.0 °F 88.4 °F 70.0 °F 63% 29.93 in 10.0 mi NW 11.5 mph - N/A   Partly Cloudy
5:51 PM 82.9 °F 85.0 °F 66.0 °F 56% 29.90 in 10.0 mi Calm Calm - N/A   Clear
6:51 PM 79.0 °F - 64.9 °F 62% 29.90 in 10.0 mi South 11.5 mph - N/A   Clear
7:51 PM 77.0 °F - 64.0 °F 64% 29.86 in 10.0 mi SSE 16.1 mph - N/A   Clear
8:51 PM 73.9 °F - 63.0 °F 68% 29.86 in 10.0 mi South 12.7 mph - N/A   Clear
9:51 PM 73.0 °F - 62.1 °F 68% 29.86 in 10.0 mi SSE 16.1 mph 21.9 mph N/A   Clear
10:51 PM 73.9 °F - 61.0 °F 64% 29.89 in 10.0 mi South 13.8 mph - N/A   Clear
11:51 PM 75.0 °F - 64.0 °F 69% 29.87 in 10.0 mi South 16.1 mph - N/A   Clear